Home > Weather > Marburg > Past weeks

Flag for Germany Past Weather in Marburg, Hesse, Germany — Yesterday and Last 2 Weeks

Now
61 °F

Passing clouds.


Feels Like: 61 °F
Forecast: 56 / 71 °F
Wind: 2 mph from North

Location: Fritzlar Airport

Current Time: Jul 28, 2016 at 1:20:23 AM

Latest Report: Jul 28, 2016 at 12:20 AM


Visibility: N/A

Pressure: 30.04 "Hg

Humidity: 83%

Dew Point: 55 °F

Location of MarburgLocation

Past Weather in Marburg — Graph

°F

Marburg Temperature Yesterday

Maximum temperature yesterday: 77 °F (at 3:20 PM)
Minimum temperature yesterday: 59 °F (at 5:20 AM)
Average temperature yesterday: 67 °F

High & Low Weather Summary for the Past Weeks

 TemperatureHumidityPressure
High90 °F (Jul 20, 3:20 PM)100% (Jul 18, 2:20 AM)30.30 "Hg (Jul 18, 2:20 AM)
Low48 °F (Jul 16, 2:20 AM)27% (Jul 20, 5:20 PM)29.89 "Hg (Jul 13, 3:20 AM)
Average67 °F73%30.09 "Hg
* Reported Jul 12 11:20 PM — Jul 27 11:20 PM, Marburg, Weather by CustomWeather, © 2016

Note: Actual official high and low records may vary slightly from our data, if they occured in-between our weather recording intervals... More about our weather records

Advertising

Marburg Weather History for the Previous 24 Hours

Scroll right to see more
 ConditionsComfort  
Time TempWeatherWind HumidityBarometerVisibility
11:20 PM
Wed, Jul 27
61 °FPassing clouds.5 mph83%30.04 "HgN/A
10:20 PM63 °FPassing clouds.5 mph73%30.04 "HgN/A
9:20 PM66 °FScattered clouds.5 mph64%30.04 "HgN/A
8:20 PM72 °FPartly sunny.6 mph53%30.01 "HgN/A
7:20 PM73 °FBroken clouds.10 mph47%30.01 "HgN/A
6:20 PM75 °FScattered clouds.8 mph47%29.98 "HgN/A
5:20 PM77 °FScattered clouds.12 mph42%29.98 "HgN/A
4:20 PM77 °FScattered clouds.12 mph44%29.98 "HgN/A
3:20 PM77 °FScattered clouds.14 mph44%29.98 "HgN/A
2:20 PM75 °FScattered clouds.6 mph54%29.98 "HgN/A
1:20 PM73 °FBroken clouds.3 mph61%30.01 "HgN/A
12:20 PM73 °FBroken clouds.3 mph65%30.04 "HgN/A
11:20 AM70 °FBroken clouds.5 mph73%30.04 "HgN/A
10:20 AM66 °FBroken clouds.2 mph83%30.04 "HgN/A
9:20 AM64 °FBroken clouds.2 mph88%30.04 "Hg5 mi
8:49 AM63 °FSprinkles. Partly sunny.6 mph88%30.04 "Hg4 mi
8:20 AM63 °FBroken clouds.2 mph88%30.04 "Hg5 mi
7:20 AM61 °FPartly sunny.6 mph94%30.04 "Hg4 mi
6:20 AM59 °FFog.3 mph94%30.04 "Hg4 mi
5:20 AM59 °FPartly cloudy.6 mph100%30.07 "Hg4 mi
4:20 AM61 °FPartly cloudy.6 mph94%30.07 "Hg4 mi
3:20 AM61 °FPartly cloudy.5 mph94%30.07 "Hg5 mi
2:20 AM63 °FPassing clouds.6 mph94%30.09 "Hg5 mi
1:20 AM63 °FPassing clouds.6 mph88%30.09 "Hg5 mi
Weather by CustomWeather, © 2016

See weather overviewHow to use our weather pages